When you browse on this site, cookies collect data to enhance your experience and personalize the content and advertising you see.
Visit our Privacy Policy to learn more. By continuing to use the site, you agree to this use of cookies and data.
  • In Netherlands
  • List of Countries
  • For 7 days
  • Water Temperature
  • Weather Map
  • Weather Widgets
  • user-avatar
    Login

    Hourly Weather Tongeren

    Today, 30 March, Monday

    Time Temperature Precipitation Wind Pressure Humidity
    00:00 -3°C° 0 mm 4 mps 765 mmHg 56%
    01:00 -4°C° 0 mm 4 mps 765 mmHg 58%
    02:00 -4°C° 0 mm 3 mps 765 mmHg 60%
    03:00 -5°C° 0 mm 3 mps 765 mmHg 62%
    04:00 -5°C° 0 mm 3 mps 765 mmHg 63%
    05:00 -3°C° 0 mm 2 mps 765 mmHg 63%
    06:00 -3°C° 0 mm 2 mps 765 mmHg 63%
    07:00 -1°C° 0 mm 2 mps 765 mmHg 56%
    08:00 +1°C° 0 mm 3 mps 764 mmHg 50%
    09:00 +3°C° 0 mm 3 mps 764 mmHg 43%
    10:00 +4°C° 0 mm 3 mps 764 mmHg 42%
    11:00 +5°C° 0 mm 3 mps 763 mmHg 42%
    12:00 +7°C° 0 mm 3 mps 763 mmHg 41%
    13:00 +7°C° 0 mm 3 mps 762 mmHg 45%
    14:00 +8°C° 0 mm 3 mps 762 mmHg 48%
    15:00 +7°C° 0 mm 4 mps 761 mmHg 51%
    16:00 +7°C° 0 mm 3 mps 761 mmHg 60%
    17:00 +5°C° 0 mm 2 mps 761 mmHg 69%
    18:00 +4°C° 0 mm 2 mps 761 mmHg 78%
    19:00 +4°C° 0 mm 2 mps 761 mmHg 82%
    20:00 +3°C° 0 mm 2 mps 761 mmHg 85%
    21:00 +3°C° 0 mm 2 mps 761 mmHg 88%
    22:00 +2°C° 0 mm 2 mps 762 mmHg 90%
    23:00 +2°C° 0 mm 2 mps 762 mmHg 92%

    Tomorrow, 31 March, Tuesday

    Time Temperature Precipitation Wind Pressure Humidity
    00:00 +1°C° 0 mm 2 mps 762 mmHg 94%
    01:00 +1°C° 0 mm 2 mps 762 mmHg 94%
    02:00 -1°C° 0 mm 2 mps 762 mmHg 95%
    03:00 -1°C° 0 mm 2 mps 762 mmHg 96%
    04:00 -1°C° 0 mm 3 mps 762 mmHg 94%
    05:00 -1°C° 0 mm 3 mps 763 mmHg 92%
    06:00 -2°C° 0 mm 3 mps 763 mmHg 90%
    07:00 -1°C° 0 mm 4 mps 763 mmHg 77%
    08:00 +1°C° 0 mm 4 mps 764 mmHg 65%
    09:00 +3°C° 0 mm 5 mps 764 mmHg 52%
    10:00 +5°C° 0 mm 5 mps 763 mmHg 48%
    11:00 +6°C° 0 mm 4 mps 763 mmHg 44%
    12:00 +7°C° 0 mm 4 mps 763 mmHg 40%
    13:00 +7°C° 0 mm 4 mps 763 mmHg 40%
    14:00 +7°C° 0 mm 4 mps 762 mmHg 40%
    15:00 +8°C° 0 mm 4 mps 762 mmHg 39%
    16:00 +6°C° 0 mm 4 mps 762 mmHg 44%
    17:00 +5°C° 0 mm 3 mps 762 mmHg 49%
    18:00 +3°C° 0 mm 3 mps 762 mmHg 54%
    19:00 +3°C° 0 mm 2 mps 762 mmHg 55%
    20:00 +2°C° 0 mm 2 mps 762 mmHg 55%
    21:00 +1°C° 0 mm 2 mps 762 mmHg 56%
    22:00 +2°C° 0 mm 1 mps 762 mmHg 58%
    23:00 +1°C° 0 mm 1 mps 761 mmHg 60%

    Day after tomorrow, 1 April, Wednesday

    Time Temperature Precipitation Wind Pressure Humidity
    00:00 +1°C° 0 mm 1 mps 761 mmHg 61%
    01:00 +1°C° 0 mm 1 mps 761 mmHg 64%
    02:00 0°C° 0 mm 1 mps 760 mmHg 66%
    03:00 0°C° 0 mm 1 mps 760 mmHg 69%
    04:00 -1°C° 0 mm 0 mps 760 mmHg 68%
    05:00 0°C° 0 mm 0 mps 760 mmHg 68%
    06:00 0°C° 0 mm 0 mps 759 mmHg 67%
    07:00 +2°C° 0 mm 0 mps 759 mmHg 61%
    08:00 +5°C° 0 mm 1 mps 759 mmHg 54%
    09:00 +7°C° 0 mm 1 mps 759 mmHg 48%
    10:00 +8°C° 0 mm 1 mps 758 mmHg 46%
    11:00 +9°C° 0 mm 1 mps 758 mmHg 45%
    12:00 +10°C° 0 mm 1 mps 758 mmHg 43%
    13:00 +9°C° 0 mm 2 mps 757 mmHg 46%
    14:00 +9°C° 0 mm 2 mps 756 mmHg 49%
    15:00 +9°C° 0 mm 3 mps 756 mmHg 52%
    16:00 +8°C° 0 mm 3 mps 756 mmHg 59%
    17:00 +6°C° 0 mm 2 mps 755 mmHg 66%
    18:00 +5°C° 0 mm 2 mps 755 mmHg 74%
    19:00 +4°C° 0 mm 2 mps 755 mmHg 75%
    20:00 +4°C° 0 mm 1 mps 755 mmHg 77%
    21:00 +2°C° 0 mm 0 mps 756 mmHg 78%
    22:00 +3°C° 0 mm 1 mps 755 mmHg 80%
    23:00 +3°C° 0 mm 1 mps 755 mmHg 82%

    2 April, Thursday

    Time Temperature Precipitation Wind Pressure Humidity
    00:00 +2°C° 0 mm 1 mps 755 mmHg 83%
    01:00 +2°C° 0 mm 1 mps 755 mmHg 84%
    02:00 +1°C° 0 mm 1 mps 755 mmHg 86%
    03:00 +1°C° 0 mm 1 mps 754 mmHg 87%
    04:00 +1°C° 0 mm 1 mps 754 mmHg 86%
    05:00 -1°C° 0 mm 2 mps 754 mmHg 86%
    06:00 -1°C° 0 mm 2 mps 754 mmHg 85%
    07:00 +3°C° 0 mm 2 mps 754 mmHg 76%
    08:00 +5°C° 0 mm 2 mps 754 mmHg 68%
    09:00 +7°C° 0 mm 2 mps 753 mmHg 59%
    10:00 +8°C° 0 mm 2 mps 753 mmHg 57%
    11:00 +9°C° 0 mm 2 mps 753 mmHg 54%
    12:00 +10°C° 0 mm 2 mps 752 mmHg 52%
    13:00 +9°C° 0 mm 3 mps 752 mmHg 54%
    14:00 +9°C° 0 mm 3 mps 751 mmHg 56%
    15:00 +8°C° 0 mm 4 mps 751 mmHg 58%
    16:00 +8°C° 0 mm 3 mps 751 mmHg 61%
    17:00 +7°C° 0 mm 3 mps 751 mmHg 64%
    18:00 +5°C° 0 mm 3 mps 751 mmHg 67%
    19:00 +4°C° 0 mm 3 mps 751 mmHg 71%
    20:00 +3°C° 0 mm 3 mps 751 mmHg 75%
    21:00 +2°C° 0 mm 3 mps 751 mmHg 79%
    22:00 +1°C° 0 mm 4 mps 751 mmHg 81%
    23:00 +3°C° 0 mm 4 mps 751 mmHg 84%

    3 April, Friday

    Time Temperature Precipitation Wind Pressure Humidity
    00:00 +3°C° 0 mm 4 mps 751 mmHg 86%
    01:00 +3°C° 0.1 mm 4 mps 751 mmHg 89%
    02:00 +3°C° 0.1 mm 4 mps 751 mmHg 92%
    03:00 +3°C° 0.1 mm 4 mps 750 mmHg 95%
    04:00 +4°C° 0.1 mm 3 mps 751 mmHg 95%
    05:00 +4°C° 0.1 mm 3 mps 752 mmHg 95%
    06:00 +4°C° 0.1 mm 3 mps 752 mmHg 95%
    07:00 +5°C° 0.1 mm 3 mps 753 mmHg 89%
    08:00 +7°C° 0.1 mm 3 mps 753 mmHg 84%
    09:00 +7°C° 0.1 mm 3 mps 753 mmHg 79%
    10:00 +8°C° 0.1 mm 3 mps 754 mmHg 72%
    11:00 +9°C° 0.1 mm 3 mps 754 mmHg 66%
    12:00 +9°C° 0.1 mm 3 mps 755 mmHg 60%
    13:00 +10°C° 0 mm 3 mps 755 mmHg 56%
    14:00 +10°C° 0 mm 3 mps 755 mmHg 52%
    15:00 +10°C° 0 mm 2 mps 755 mmHg 48%
    16:00 +9°C° 0 mm 2 mps 755 mmHg 52%
    17:00 +8°C° 0 mm 2 mps 756 mmHg 56%
    18:00 +6°C° 0 mm 2 mps 756 mmHg 60%
    19:00 +5°C° 0 mm 2 mps 757 mmHg 63%
    20:00 +4°C° 0 mm 2 mps 757 mmHg 66%
    21:00 +3°C° 0 mm 2 mps 758 mmHg 68%
    22:00 +3°C° 0 mm 2 mps 758 mmHg 68%
    23:00 +2°C° 0 mm 2 mps 758 mmHg 68%

    4 April, Saturday

    Time Temperature Precipitation Wind Pressure Humidity
    00:00 +2°C° 0 mm 2 mps 759 mmHg 68%
    01:00 +1°C° 0 mm 2 mps 759 mmHg 69%
    02:00 +1°C° 0 mm 2 mps 759 mmHg 70%
    03:00 +1°C° 0 mm 2 mps 759 mmHg 70%
    04:00 +1°C° 0 mm 2 mps 759 mmHg 71%
    05:00 +1°C° 0 mm 2 mps 760 mmHg 71%
    06:00 +2°C° 0 mm 2 mps 760 mmHg 71%
    07:00 +4°C° 0 mm 2 mps 760 mmHg 65%
    08:00 +7°C° 0 mm 3 mps 760 mmHg 59%
    09:00 +9°C° 0 mm 3 mps 760 mmHg 53%
    10:00 +11°C° 0 mm 3 mps 759 mmHg 49%
    11:00 +12°C° 0 mm 3 mps 759 mmHg 45%
    12:00 +14°C° 0 mm 2 mps 759 mmHg 42%
    13:00 +15°C° 0 mm 2 mps 759 mmHg 42%
    14:00 +15°C° 0 mm 2 mps 759 mmHg 41%
    15:00 +15°C° 0 mm 2 mps 758 mmHg 41%
    16:00 +14°C° 0 mm 2 mps 758 mmHg 48%
    17:00 +12°C° 0 mm 2 mps 758 mmHg 55%
    18:00 +10°C° 0 mm 2 mps 758 mmHg 61%
    19:00 +9°C° 0 mm 2 mps 759 mmHg 64%
    20:00 +7°C° 0 mm 2 mps 759 mmHg 66%
    21:00 +5°C° 0 mm 3 mps 759 mmHg 68%
    22:00 +5°C° 0 mm 3 mps 759 mmHg 69%
    23:00 +5°C° 0 mm 2 mps 759 mmHg 69%
    Show more